Weather History for Kingstree, SC

Change the Weather History Date:

Monday, February 11, 2013

  Actual Average Record
Temperature  
Mean Temperature 60 °F -  
Max Temperature 68 °F 56 °F 68 °F (2013)
Min Temperature 53 °F 29 °F 26 °F (2011)
Degree Days  
Heating Degree Days 4    
Growing Degree Days 10 (Base 50)    
Moisture  
Dew Point 61 °F    
Average Humidity 98    
Maximum Humidity 100    
Minimum Humidity 88    
Precipitation  
Precipitation 0.83 in - - ()
Sea Level Pressure  
Sea Level Pressure 30.12 in    
Wind  
Wind Speed 6 mph (South)    
Max Wind Speed 12 mph    
Max Gust Speed 22 mph    
Visibility 9 miles    
Events Rain    
Averages and records for this station are not official NWS values.
T = Trace of Precipitation, MM = Missing Value Source: NWS Daily Summary

Daily Weather History Graph

Daily Weather History Graph

Search for Another Location

Airport:

Trip Planner

Search our weather history database for the weather conditions in past years. The results will help you decide how hot, cold, wet, or windy it might be!

Date:

Astronomy

Feb. 11, 2013 Rise Set
Actual Time 7:07 AM EST 6:00 PM EST
Civil Twilight 6:41 AM EST 6:25 PM EST
Nautical Twilight 6:12 AM EST 6:55 PM EST
Astronomical Twilight 5:43 AM EST 7:24 PM EST
Moon 7:37 AM EST (2/11) 7:47 PM EST (2/11)
Length of Visible Light 11h 44m
Length of Day
10h 52m
Waxing Crescent, 3% of the Moon is Illuminated
Feb 11
Waxing Crescent
Feb 17
First Quarter
Feb 25
Full
Mar 4
Last Quarter
Mar 11
New

Hourly Weather History & Observations

Time (EST) Temp. Dew Point Humidity Pressure Visibility Wind Dir Wind Speed Gust Speed Precip Events Conditions
12:15 AM 53.6 °F 53.6 °F 100% 30.26 in 7.0 mi Calm Calm - 0.01 in Rain Rain
12:35 AM 53.6 °F 53.6 °F 100% 30.27 in 7.0 mi North 3.5 mph - 0.03 in Rain Rain
12:55 AM 53.6 °F 53.6 °F 100% 30.27 in 7.0 mi NNW 3.5 mph - 0.06 in Rain Rain
1:15 AM 53.6 °F 53.6 °F 100% 30.25 in 5.0 mi ENE 4.6 mph - 0.03 in Rain Rain
1:35 AM 53.6 °F 53.6 °F 100% 30.25 in 7.0 mi Calm Calm - 0.06 in Rain Rain
1:55 AM 53.6 °F 53.6 °F 100% 30.24 in 5.0 mi Calm Calm - 0.10 in Rain Rain
2:15 AM 53.6 °F 53.6 °F 100% 30.22 in 7.0 mi ESE 4.6 mph - 0.03 in Rain Rain
2:35 AM 53.6 °F 53.6 °F 100% 30.21 in 7.0 mi ESE 8.1 mph - 0.06 in Rain Rain
2:55 AM 55.4 °F 55.4 °F 100% 30.19 in 7.0 mi East 6.9 mph - 0.10 in Rain Rain
3:15 AM 55.4 °F 55.4 °F 100% 30.19 in 7.0 mi ESE 4.6 mph - 0.02 in Rain Rain
3:35 AM 55.4 °F 55.4 °F 100% 30.18 in 7.0 mi SE 3.5 mph - 0.04 in Rain Rain
4:15 AM 57.2 °F 57.2 °F 100% 30.15 in 10.0 mi ESE 8.1 mph - 0.02 in Rain Light Rain
4:35 AM 57.2 °F 57.2 °F 100% 30.14 in 10.0 mi ESE 8.1 mph - 0.02 in Rain Rain
4:55 AM 59.0 °F 59.0 °F 100% 30.13 in 10.0 mi SE 9.2 mph - 0.03 in Rain Rain
5:15 AM 59.0 °F 59.0 °F 100% 30.13 in 10.0 mi SE 11.5 mph - N/A Rain Rain
5:35 AM 59.0 °F 59.0 °F 100% 30.14 in 10.0 mi SSE 5.8 mph - 0.01 in Rain Rain
5:55 AM 60.8 °F 60.8 °F 100% 30.14 in 10.0 mi SE 9.2 mph - 0.02 in Rain Rain
6:15 AM 60.8 °F 60.8 °F 100% 30.14 in 7.0 mi SSE 6.9 mph - 0.01 in Rain Rain
6:35 AM 60.8 °F 60.8 °F 100% 30.14 in 7.0 mi SSE 8.1 mph - 0.03 in Rain Rain
6:55 AM 60.8 °F 60.8 °F 100% 30.14 in 7.0 mi SSE 6.9 mph - 0.05 in Rain Rain
7:15 AM 60.8 °F 60.8 °F 100% 30.14 in 7.0 mi South 6.9 mph - 0.01 in Rain Light Rain
7:35 AM 62.6 °F 62.6 °F 100% 30.14 in 7.0 mi SSE 5.8 mph - 0.02 in Rain Rain
7:55 AM 62.6 °F 62.6 °F 100% 30.14 in 10.0 mi South 8.1 mph - 0.04 in Rain Light Rain
8:15 AM 62.6 °F 62.6 °F 100% 30.14 in 10.0 mi South 9.2 mph - N/A Rain Light Rain
8:35 AM 62.6 °F 62.6 °F 100% 30.14 in 10.0 mi South 10.4 mph 17.3 mph 0.01 in Rain Light Rain
8:55 AM 62.6 °F 62.6 °F 100% 30.14 in 10.0 mi South 11.5 mph 16.1 mph 0.01 in Rain Rain
9:15 AM 62.6 °F 62.6 °F 100% 30.14 in 10.0 mi South 11.5 mph 17.3 mph 0.01 in Rain Light Rain
9:35 AM 64.4 °F 64.4 °F 100% 30.14 in 10.0 mi South 9.2 mph 17.3 mph 0.01 in   Drizzle
9:55 AM 64.4 °F 64.4 °F 100% 30.14 in 10.0 mi South 5.8 mph - 0.01 in   Light Drizzle
10:15 AM 64.4 °F 64.4 °F 100% 30.14 in 10.0 mi South 10.4 mph - 0.01 in Rain Light Rain
10:35 AM 64.4 °F 64.4 °F 100% 30.13 in 10.0 mi South 10.4 mph 19.6 mph 0.01 in Rain Light Rain
10:55 AM 64.4 °F 64.4 °F 100% 30.14 in 7.0 mi South 9.2 mph 21.9 mph 0.04 in Rain Rain
11:15 AM 64.4 °F 64.4 °F 100% 30.14 in 10.0 mi South 10.4 mph 20.7 mph 0.02 in Rain Rain
11:35 AM 64.4 °F 64.4 °F 100% 30.12 in 10.0 mi SSE 11.5 mph - 0.03 in Rain Light Rain
11:55 AM 64.4 °F 64.4 °F 100% 30.10 in 10.0 mi SSE 10.4 mph 17.3 mph 0.04 in Rain Light Rain
12:15 PM 64.4 °F 64.4 °F 100% 30.09 in 10.0 mi South 11.5 mph 18.4 mph N/A   Clear
12:35 PM 64.4 °F 64.4 °F 100% 30.07 in 10.0 mi SSE 8.1 mph 18.4 mph N/A   Clear
12:55 PM 66.2 °F 66.2 °F 100% 30.07 in 10.0 mi South 9.2 mph - N/A   Clear
1:15 PM 68.0 °F 66.2 °F 94% 30.08 in 10.0 mi SSW 9.2 mph 17.3 mph N/A   Clear
1:35 PM 68.0 °F 66.2 °F 94% 30.08 in 10.0 mi SSW 10.4 mph 17.3 mph N/A   Clear
1:55 PM 68.0 °F 64.4 °F 88% 30.08 in 10.0 mi SW 8.1 mph 18.4 mph N/A   Clear
2:15 PM 68.0 °F 66.2 °F 94% 30.07 in 10.0 mi SSW 8.1 mph - N/A   Clear
2:35 PM 68.0 °F 66.2 °F 94% 30.06 in 10.0 mi SSW 9.2 mph - N/A   Clear
2:55 PM 68.0 °F 64.4 °F 88% 30.05 in 10.0 mi South 8.1 mph - N/A   Clear
3:15 PM 68.0 °F 64.4 °F 88% 30.05 in 10.0 mi SSW 8.1 mph - N/A   Clear
3:35 PM 68.0 °F 64.4 °F 88% 30.06 in 10.0 mi SSW 6.9 mph - N/A   Clear
4:15 PM 68.0 °F 64.4 °F 88% 30.05 in 10.0 mi South 6.9 mph - N/A   Clear
4:35 PM 68.0 °F 64.4 °F 88% 30.05 in 10.0 mi South 6.9 mph - N/A   Clear
4:55 PM 66.2 °F 64.4 °F 94% 30.05 in 10.0 mi SSW 8.1 mph - N/A   Clear
6:15 PM 64.4 °F 64.4 °F 100% 30.06 in 10.0 mi SW 4.6 mph - 0.02 in Rain Rain
6:35 PM 64.4 °F 64.4 °F 100% 30.06 in 7.0 mi SW 4.6 mph - 0.03 in Rain Light Rain
6:55 PM 64.4 °F 64.4 °F 100% 30.07 in 10.0 mi SW 4.6 mph - 0.04 in Rain Light Rain
7:15 PM 64.4 °F 64.4 °F 100% 30.07 in 10.0 mi WSW 5.8 mph - 0.01 in Rain Light Rain
7:35 PM 64.4 °F 64.4 °F 100% 30.08 in 10.0 mi SW 4.6 mph - 0.02 in Rain Light Rain
7:55 PM 62.6 °F 62.6 °F 100% 30.08 in 10.0 mi South 5.8 mph - 0.02 in Rain Rain
8:15 PM 62.6 °F 62.6 °F 100% 30.08 in 10.0 mi SSW 8.1 mph - 0.01 in Rain Light Rain
8:35 PM 62.6 °F 62.6 °F 100% 30.07 in 10.0 mi SSW 6.9 mph - 0.03 in Rain Light Rain
8:55 PM 62.6 °F 62.6 °F 100% 30.06 in 10.0 mi South 5.8 mph - 0.04 in Rain Light Rain
9:15 PM 62.6 °F 62.6 °F 100% 30.05 in 10.0 mi South 5.8 mph - N/A Rain Light Rain
9:35 PM 62.6 °F 62.6 °F 100% 30.06 in 10.0 mi SSW 5.8 mph - 0.02 in Rain Light Rain
9:55 PM 62.6 °F 62.6 °F 100% 30.05 in 10.0 mi South 6.9 mph - 0.02 in Rain Rain
10:15 PM 62.6 °F 62.6 °F 100% 30.04 in 10.0 mi Calm Calm - 0.01 in Rain Light Rain
10:35 PM 60.8 °F 60.8 °F 100% 30.04 in 10.0 mi SW 3.5 mph - 0.03 in Rain Rain
10:55 PM 60.8 °F 60.8 °F 100% 30.06 in 7.0 mi WSW 5.8 mph - 0.07 in Rain Rain
11:15 PM 60.8 °F 60.8 °F 100% 30.06 in 7.0 mi SSW 4.6 mph - 0.03 in Rain Rain
11:35 PM 60.8 °F 60.8 °F 100% 30.06 in 10.0 mi SW 6.9 mph - 0.06 in Rain Rain
11:55 PM 60.8 °F 60.8 °F 100% 30.06 in 10.0 mi SW 5.8 mph - 0.10 in Rain Rain